Location: WWIN Observatory
(34.8953°N, 91.9583°W)
Time: 12:26:42
(UTC-06:00)

Daily predictions for brighter satellites

Satellite Brightness Start Highest point End
(mag) Time Altitude Azimuth Time Altitude Azimuth Time Altitude Azimuth
ALOS 2.3 18:08:58 10° SSE 18:13:32 60° ENE 18:18:08 10° N
Cosmos 2285 Rocket 4.1 18:08:39 10° S 18:14:52 66° ESE 18:21:11 10° NNE
Landsat 4 3.8 18:12:58 10° NNE 18:16:38 52° E 18:20:17 10° S
Cosmos 1867 3.8 18:11:12 10° NNW 18:16:40 78° WSW 18:22:05 10° SSE
Cosmos 1371 Rocket 4.2 18:13:49 10° N 18:18:55 49° ENE 18:24:02 10° SE
CZ-3A R/B 4.5 18:15:45 10° SSW 18:20:25 27° SE 18:37:05 10° E
MOS 1-B Rocket 4.1 18:14:03 10° SSE 18:20:46 65° ENE 18:26:38 10° N
Abrixas rocket 2.5 18:20:33 10° NW 18:23:38 46° NE 18:26:42 10° ESE
USA 215 3.3 18:18:49 10° NE 18:25:21 70° SE 18:31:50 10° SW
SeaSat 1 3.9 18:22:32 10° E 18:25:47 18° NE 18:29:03 10° NNE
DELTA 2 R/B (1) 3.9 18:21:31 10° WNW 18:27:02 70° SSW 18:32:34 10° ESE
NOSS 3-2 (C) 3.4 18:21:44 10° SSW 18:27:30 72° ESE 18:33:51 10° NE
COSMO-SKYMED 1 3.1 18:23:19 10° N 18:27:37 63° WNW 18:31:53 10° SSW
Cosmos 2219 Rocket 2.2 18:26:41 10° NNW 18:32:23 85° ENE 18:38:01 10° SSE
FALCON 9 R/B 3.9 18:30:18 10° W 18:36:30 88° S 18:57:36 15° E
Cosmos 1725 Rocket 4.4 18:31:44 10° N 18:38:00 71° W 18:44:13 10° S
GPS 2-04 Rocket1 4.0 18:35:38 10° W 18:39:05 33° SSW 18:42:23 10° SE
Cosmos 2227 Rocket 2.2 18:33:27 10° SSW 18:39:06 80° ESE 18:44:45 10° NNE
SPOT 3 Rocket 3.5 18:34:24 10° SSE 18:39:33 70° ENE 18:44:44 10° N
Cosmos 2237 Rocket 2.3 18:38:00 10° N 18:43:29 51° ENE 18:48:56 10° SE
H-2A R/B 2.9 18:40:39 10° SSE 18:44:27 54° ENE 18:48:17 10° N
SL-8 R/B 3.8 18:39:49 10° SW 18:44:31 62° SE 18:48:30 14° ENE
SL-16 R/B 3.4 18:40:36 10° N 18:44:50 21° ENE 18:47:38 15° E
OAO 2 Rocket 4.2 18:42:06 10° SW 18:46:31 34° SSE 18:49:44 16° E
Cosmos 2056 Rocket 3.5 18:43:03 10° NNW 18:48:28 73° ENE 18:53:53 10° SSE
NOAA 12 4.3 18:43:53 10° S 18:49:09 76° WSW 18:54:29 10° NNW
FENGYUN 3A 4.4 18:47:57 10° S 18:53:14 58° W 18:58:34 10° NNW
Cosmos 2297 Rocket 2.2 18:47:55 10° SSW 18:53:35 89° WNW 18:59:16 10° NNE
Cosmos 1452 Rocket 4.2 18:50:12 10° N 18:54:50 31° ENE 18:58:47 13° ESE
CZ-2D R/B 4.3 18:53:26 18° ESE 18:55:08 24° ENE 18:58:19 10° NNE
Cosmos 1674 Rocket 3.7 18:52:44 10° N 18:56:57 48° E 19:01:07 10° SSE
Cosmos 405 2.9 18:55:30 10° S 18:58:59 87° W 19:02:30 10° N
Cosmos 1908 Rocket 4.0 18:54:57 10° SSE 18:59:08 40° E 19:03:19 10° NNE
ORS 1 (USA 231) 4.0 19:00:35 10° WNW 19:02:58 54° NNE 19:03:09 51° NE
CENTAUR R/B 2.5 18:57:53 10° S 19:03:30 52° ESE 19:09:49 10° NE
Geosat 4.2 19:02:44 10° NE 19:07:35 47° ESE 19:12:24 10° S
Meteor 1-25 Rocket 4.1 19:02:33 10° S 19:08:01 63° E 19:13:29 10° NNE
Resurs 01 Rocket 3.5 19:09:58 15° NE 19:09:58 15° NE 19:11:14 10° NNE
Cosmos 1812 2.6 19:04:23 10° N 19:08:14 62° E 19:12:03 10° SSE
Cosmos 1733 Rocket 3.7 19:04:31 10° SSW 19:08:46 56° W 19:13:00 10° N
Shenzhou-11 Module 1.9 19:06:33 10° WNW 19:09:33 65° NNE 19:10:03 52° ENE
Cosmos 2333 Rocket 3.2 19:08:46 10° NNW 19:14:11 48° WSW 19:19:33 10° S
Cosmos 1420 Rocket 4.4 19:13:32 10° N 19:18:31 40° ENE 19:20:16 31° ESE
ERS-2 2.4 19:15:06 10° S 19:18:45 70° WSW 19:22:27 10° NNW
Cosmos 2082 4.2 19:13:44 10° SSW 19:19:15 60° WNW 19:24:49 10° NNE
Cosmos 158 Rocket 3.7 19:15:39 10° SSW 19:20:34 79° ESE 19:25:27 10° NNE
Tiangong 2 2.6 19:18:53 10° NW 19:21:24 26° N 19:21:24 26° N
Cosmos 44 Rocket 4.4 19:19:01 10° N 19:23:04 28° NE 19:23:04 28° NE
Iridium 4 Rocket 3.1 19:18:28 10° N 19:23:24 67° E 19:27:52 10° S
FREGAT/IRIS 3.5 19:21:34 10° S 19:24:25 48° W 19:27:18 10° NNW
Tsikada Rocket 4.3 19:18:56 10° SSE 19:24:55 44° E 19:30:57 10° NNE
Okean 3 3.4 19:25:30 10° N 19:29:41 83° W 19:33:50 10° S
Thor Agena Rocket 3.6 19:32:14 10° N 19:37:19 77° WNW 19:42:21 10° SSW
Cosmos 1633 3.5 19:34:14 10° SSW 19:37:39 47° W 19:41:07 10° N
USA 32 4.0 19:38:12 10° S 19:43:27 85° W 19:48:42 10° N
Lacrosse 5 2.2 19:38:54 10° NW 19:43:54 63° SW 19:46:02 33° SSE
Sich 1 Rocket 3.7 19:39:29 10° S 19:44:01 78° W 19:48:32 10° N
SJ-6B 3.5 19:45:18 13° S 19:48:30 50° W 19:52:11 10° NNW
Envisat 2.9 19:43:33 10° SSE 19:48:38 88° WSW 19:53:44 10° NNW
Cosmos 1269 Rocket 3.8 19:44:11 10° S 19:49:26 74° ESE 19:50:14 61° NE
Cosmos 1464 Rocket 4.1 19:44:22 10° N 19:50:29 72° W 19:56:34 10° S
CRYOSAT 2 4.4 19:47:53 10° N 19:52:45 76° W 19:57:35 10° SSW
Cosmos 1782 Rocket 3.7 19:51:56 10° S 19:56:14 74° WSW 19:56:14 74° WSW
Cosmos 1378 Rocket 4.2 19:53:03 10° NNW 19:57:21 54° W 20:01:25 11° S
SeaSat 1 3.0 20:00:39 30° S 20:02:52 55° WSW 20:07:43 10° NW
Cosmos 44 3.6 20:02:26 10° NNW 20:06:46 66° NNW 20:06:46 66° NNW
SL-16 R/B 2.9 20:23:45 10° NNW 20:29:10 48° WSW 20:29:36 47° WSW
USA 267 3.9 20:40:30 45° NNW 20:40:30 45° NNW 20:45:06 10° NW
Resurs 01 Rocket 4.4 20:47:33 14° NW 20:47:33 14° NW 20:48:14 10° NW
CENTAUR R/B 4.3 20:49:26 10° W 20:54:29 26° NW 20:57:10 21° N
CZ-3C R/B 3.8 20:48:54 10° SW 21:39:38 - E 20:52:34 34° S
